Volver al catálogo

STARLINK-3125

ActivoComunicacionesVLEO
NORAD 49451·PAYLOAD·🇺🇸 United States

Lanzado Nov 13, 2021 desde Cape Canaveral Space Force Station

Loading…

Próximos Pases (próximas 24 horas)

TLE

ActualizadoSource: CelesTrak SupGP

Época: Sep 14, 2026, 21:58 UTC

1 49451C 21104AV  26257.91576389  .00043921  00000+0  13327-2 0  2574
2 49451  53.1580  78.0045 0001454  78.4740 115.7302 15.33526505    10

Sigue STARLINK-3125 en tiempo real con AllMySat

Download on the App Store